When you browse on this site, cookies collect data to enhance your experience and personalize the content and advertising you see.
Visit our Privacy Policy to learn more. By continuing to use the site, you agree to this use of cookies and data.

Hourly Weather Lezhe

Today, 20 September, Sunday

Time Temperature Precipitation Wind Pressure Humidity
00:00 +21°C° 0 mm 2 mps 738 mmHg 56%
01:00 +21°C° 0 mm 2 mps 738 mmHg 57%
02:00 +20°C° 0 mm 2 mps 738 mmHg 59%
03:00 +20°C° 0 mm 2 mps 738 mmHg 61%
04:00 +19°C° 0 mm 2 mps 738 mmHg 63%
05:00 +20°C° 0 mm 2 mps 738 mmHg 60%
06:00 +21°C° 0 mm 2 mps 738 mmHg 57%
07:00 +23°C° 0 mm 2 mps 738 mmHg 53%
08:00 +25°C° 0 mm 2 mps 738 mmHg 47%
09:00 +28°C° 0 mm 2 mps 738 mmHg 41%
10:00 +30°C° 0 mm 1 mps 738 mmHg 35%
11:00 +30°C° 0 mm 2 mps 737 mmHg 33%
12:00 +31°C° 0 mm 3 mps 737 mmHg 32%
13:00 +31°C° 0 mm 3 mps 737 mmHg 30%
14:00 +31°C° 0 mm 3 mps 737 mmHg 33%
15:00 +30°C° 0 mm 3 mps 736 mmHg 35%
16:00 +29°C° 0 mm 2 mps 736 mmHg 38%
17:00 +27°C° 0 mm 2 mps 736 mmHg 46%
18:00 +24°C° 0 mm 1 mps 737 mmHg 55%
19:00 +22°C° 0 mm 1 mps 737 mmHg 63%
20:00 +22°C° 0 mm 1 mps 737 mmHg 61%
21:00 +21°C° 0 mm 1 mps 737 mmHg 59%
22:00 +21°C° 0 mm 1 mps 738 mmHg 57%
23:00 +20°C° 0 mm 1 mps 738 mmHg 56%

Tomorrow, 21 September, Monday

Time Temperature Precipitation Wind Pressure Humidity
00:00 +20°C° 0 mm 1 mps 738 mmHg 56%
01:00 +20°C° 0 mm 1 mps 738 mmHg 56%
02:00 +19°C° 0 mm 1 mps 738 mmHg 56%
03:00 +19°C° 0 mm 1 mps 738 mmHg 57%
04:00 +18°C° 0 mm 2 mps 738 mmHg 57%
05:00 +20°C° 0 mm 1 mps 738 mmHg 53%
06:00 +21°C° 0 mm 1 mps 738 mmHg 49%
07:00 +22°C° 0 mm 1 mps 738 mmHg 45%
08:00 +25°C° 0 mm 1 mps 738 mmHg 40%
09:00 +27°C° 0 mm 1 mps 738 mmHg 35%
10:00 +30°C° 0 mm 1 mps 738 mmHg 30%
11:00 +30°C° 0 mm 2 mps 738 mmHg 31%
12:00 +31°C° 0 mm 2 mps 738 mmHg 31%
13:00 +31°C° 0 mm 3 mps 737 mmHg 32%
14:00 +30°C° 0 mm 3 mps 737 mmHg 36%
15:00 +29°C° 0 mm 2 mps 737 mmHg 40%
16:00 +28°C° 0 mm 2 mps 737 mmHg 45%
17:00 +26°C° 0.1 mm 1 mps 737 mmHg 54%
18:00 +24°C° 0.1 mm 1 mps 737 mmHg 64%
19:00 +21°C° 0.1 mm 1 mps 738 mmHg 74%
20:00 +21°C° 0 mm 1 mps 738 mmHg 75%
21:00 +21°C° 0 mm 1 mps 738 mmHg 76%
22:00 +20°C° 0 mm 1 mps 738 mmHg 78%
23:00 +20°C° 0 mm 1 mps 738 mmHg 78%

Day after tomorrow, 22 September, Tuesday

Time Temperature Precipitation Wind Pressure Humidity
00:00 +20°C° 0 mm 1 mps 738 mmHg 78%
01:00 +20°C° 0 mm 1 mps 738 mmHg 78%
02:00 +20°C° 0 mm 1 mps 738 mmHg 77%
03:00 +20°C° 0 mm 1 mps 738 mmHg 76%
04:00 +19°C° 0 mm 2 mps 738 mmHg 74%
05:00 +21°C° 0 mm 1 mps 738 mmHg 70%
06:00 +22°C° 0 mm 1 mps 738 mmHg 66%
07:00 +23°C° 0 mm 1 mps 738 mmHg 61%
08:00 +25°C° 0.1 mm 1 mps 738 mmHg 54%
09:00 +27°C° 0.1 mm 2 mps 738 mmHg 47%
10:00 +29°C° 0.1 mm 2 mps 738 mmHg 40%
11:00 +29°C° 0.1 mm 2 mps 738 mmHg 40%
12:00 +29°C° 0.1 mm 3 mps 737 mmHg 41%
13:00 +29°C° 0.1 mm 4 mps 737 mmHg 41%
14:00 +28°C° 0.3 mm 3 mps 737 mmHg 47%
15:00 +27°C° 0.3 mm 3 mps 737 mmHg 53%
16:00 +26°C° 0.3 mm 2 mps 736 mmHg 58%
17:00 +25°C° 0.3 mm 2 mps 737 mmHg 66%
18:00 +23°C° 0.3 mm 2 mps 737 mmHg 73%
19:00 +22°C° 0.3 mm 1 mps 737 mmHg 80%
20:00 +21°C° 0.1 mm 1 mps 737 mmHg 80%
21:00 +21°C° 0.1 mm 1 mps 737 mmHg 80%
22:00 +20°C° 0.1 mm 1 mps 737 mmHg 81%
23:00 +20°C° 0 mm 1 mps 737 mmHg 80%

23 September, Wednesday

Time Temperature Precipitation Wind Pressure Humidity
00:00 +20°C° 0 mm 1 mps 737 mmHg 79%
01:00 +19°C° 0 mm 2 mps 737 mmHg 78%
02:00 +19°C° 0 mm 2 mps 737 mmHg 77%
03:00 +19°C° 0 mm 2 mps 737 mmHg 76%
04:00 +18°C° 0 mm 2 mps 736 mmHg 75%
05:00 +19°C° 0 mm 2 mps 737 mmHg 72%
06:00 +21°C° 0 mm 1 mps 737 mmHg 68%
07:00 +22°C° 0 mm 1 mps 737 mmHg 64%
08:00 +24°C° 0 mm 1 mps 737 mmHg 57%
09:00 +26°C° 0 mm 1 mps 736 mmHg 50%
10:00 +28°C° 0 mm 1 mps 736 mmHg 43%
11:00 +28°C° 0.2 mm 2 mps 736 mmHg 42%
12:00 +29°C° 0.2 mm 3 mps 736 mmHg 42%
13:00 +29°C° 0.2 mm 4 mps 735 mmHg 42%
14:00 +28°C° 2 mm 4 mps 735 mmHg 50%
15:00 +26°C° 2 mm 4 mps 735 mmHg 59%
16:00 +25°C° 2 mm 3 mps 734 mmHg 68%
17:00 +24°C° 1.6 mm 3 mps 734 mmHg 74%
18:00 +22°C° 1.6 mm 3 mps 735 mmHg 79%
19:00 +20°C° 1.6 mm 2 mps 735 mmHg 85%
20:00 +20°C° 1.3 mm 2 mps 735 mmHg 85%
21:00 +21°C° 1.3 mm 1 mps 735 mmHg 85%
22:00 +21°C° 1.3 mm 1 mps 735 mmHg 85%
23:00 +20°C° 0.6 mm 1 mps 735 mmHg 85%

24 September, Thursday

Time Temperature Precipitation Wind Pressure Humidity
00:00 +19°C° 0.6 mm 2 mps 735 mmHg 85%
01:00 +19°C° 0.6 mm 2 mps 735 mmHg 86%
02:00 +19°C° 0.1 mm 2 mps 735 mmHg 85%
03:00 +18°C° 0.1 mm 2 mps 735 mmHg 84%
04:00 +18°C° 0.1 mm 2 mps 735 mmHg 83%
05:00 +20°C° 0.2 mm 1 mps 736 mmHg 81%
06:00 +21°C° 0.2 mm 1 mps 736 mmHg 78%
07:00 +21°C° 0.2 mm 1 mps 736 mmHg 76%
08:00 +23°C° 0.1 mm 1 mps 736 mmHg 69%
09:00 +25°C° 0.1 mm 1 mps 736 mmHg 62%
10:00 +26°C° 0.1 mm 1 mps 737 mmHg 55%
11:00 +27°C° 0.1 mm 1 mps 737 mmHg 53%
12:00 +27°C° 0.1 mm 2 mps 736 mmHg 50%
13:00 +28°C° 0.1 mm 3 mps 736 mmHg 48%
14:00 +27°C° 0 mm 2 mps 736 mmHg 51%
15:00 +27°C° 0 mm 2 mps 736 mmHg 54%
16:00 +26°C° 0 mm 2 mps 736 mmHg 57%
17:00 +24°C° 0 mm 2 mps 736 mmHg 64%
18:00 +23°C° 0 mm 1 mps 737 mmHg 72%
19:00 +19°C° 0 mm 0 mps 737 mmHg 79%
20:00 +21°C° 0 mm 1 mps 737 mmHg 79%
21:00 +21°C° 0 mm 1 mps 737 mmHg 79%
22:00 +20°C° 0 mm 1 mps 738 mmHg 79%
23:00 +20°C° 0 mm 1 mps 738 mmHg 80%

25 September, Friday

Time Temperature Precipitation Wind Pressure Humidity
00:00 +20°C° 0 mm 1 mps 737 mmHg 80%
01:00 +19°C° 0 mm 1 mps 737 mmHg 81%
02:00 +19°C° 0 mm 1 mps 737 mmHg 80%
03:00 +18°C° 0 mm 2 mps 737 mmHg 80%
04:00 +18°C° 0 mm 2 mps 736 mmHg 79%
05:00 +20°C° 0 mm 1 mps 736 mmHg 74%
06:00 +21°C° 0 mm 1 mps 736 mmHg 70%
07:00 +22°C° 0 mm 1 mps 737 mmHg 65%
08:00 +24°C° 0 mm 1 mps 736 mmHg 59%
09:00 +25°C° 0 mm 1 mps 736 mmHg 53%
10:00 +27°C° 0 mm 2 mps 736 mmHg 47%
11:00 +28°C° 0 mm 2 mps 735 mmHg 44%
12:00 +29°C° 0 mm 2 mps 735 mmHg 41%
13:00 +30°C° 0 mm 3 mps 734 mmHg 38%
14:00 +28°C° 0 mm 2 mps 734 mmHg 42%
15:00 +27°C° 0 mm 2 mps 733 mmHg 47%
16:00 +26°C° 0 mm 1 mps 732 mmHg 52%
17:00 +25°C° 0.1 mm 2 mps 732 mmHg 56%
18:00 +24°C° 0.1 mm 2 mps 731 mmHg 60%
19:00 +21°C° 0.1 mm 2 mps 731 mmHg 63%
20:00 +21°C° 1.7 mm 3 mps 731 mmHg 70%
21:00 +21°C° 1.7 mm 4 mps 731 mmHg 77%
22:00 +20°C° 1.7 mm 5 mps 731 mmHg 83%
23:00 +20°C° 1.8 mm 5 mps 731 mmHg 85%
Show more